{"data":{"norad_id":57073,"intl_designator":"2023-088AB","name":"STARLINK-5838","alt_names":[],"object_type":"PAYLOAD","status":"ACTIVE","operator":null,"country":"US","launch_date":"2023-06-22","launch_site_code":"AFWTR","launch_vehicle":null,"mission":null,"orbit_class":"UNKNOWN","rcs_meters":null,"size_class":null,"mass_kg":null,"dimensions":null,"purposes":["comms"],"wikipedia_slug":null,"has_3d_model":false,"image_url":null,"decayed_at":null,"tle_current":{"epoch":"2026-05-25T00:38:25.257408Z","epoch_age_seconds":69969,"freshness":"FRESH","line1":"1 57073U 23088AB  26145.02668122  .00000064  00000+0  11855-4 0  9991","line2":"2 57073  43.0038  25.1415 0001031 247.8575 112.2167 15.27574374161196","mean_motion":15.27574374,"eccentricity":0.0001031,"inclination_deg":43.0038,"raan_deg":25.1415,"arg_perigee_deg":247.8575,"mean_anomaly_deg":112.2167,"bstar":1.1855e-5,"rev_number":16119,"period_min":94.267095894606,"perigee_km":482.35855233594,"apogee_km":483.77333238266,"semimajor_km":6861.2029423593,"source":"CELESTRAK","updated_at":"2026-05-25T13:38:18.214010Z"}}}